AUA61HK LOWW-LDSP

Flight info

Callsign AUA61HK
Flight time 0h 54m
Altitude 35000
Route STEIN3C STEIN DCT NOHAT DCT KOPRY DCT DEVUL/N0449F360 DCT NUPSO NUPSO1Z
Aircraft A320/M-SDE3FGHIRWY/LB1

Departure

Time 2026-04-21 14:29
Airport Vienna International Airport (LOWW)

Arrival

Time 2026-04-21 15:23
Airport Split Saint Jerome Airport (LDSP)
Time Latitude Longitude Altitude Speed Heading
2026-04-21 13:48 48.11687 16.56842 623 ft 0 kts 26°
2026-04-21 14:00 48.11686 16.56842 609 ft 0 kts 26°
2026-04-21 14:19 48.11666 16.56826 624 ft 4 kts 27°
2026-04-21 14:20 48.11642 16.56806 623 ft 4 kts 39°
2026-04-21 14:20 48.11627 16.56779 624 ft 4 kts 95°
2026-04-21 14:20 48.11628 16.56769 624 ft 1 kts 116°
2026-04-21 14:24 48.11623 16.56784 621 ft 6 kts 116°
2026-04-21 14:24 48.11604 16.56840 612 ft 6 kts 116°
2026-04-21 14:25 48.11570 16.56948 612 ft 16 kts 116°
2026-04-21 14:25 48.11517 16.57110 609 ft 17 kts 116°
2026-04-21 14:25 48.11469 16.57256 619 ft 15 kts 115°
2026-04-21 14:25 48.11425 16.57378 609 ft 12 kts 135°
2026-04-21 14:26 48.11358 16.57364 609 ft 10 kts 206°
2026-04-21 14:26 48.11282 16.57309 619 ft 12 kts 208°
2026-04-21 14:26 48.11213 16.57287 612 ft 9 kts 146°
2026-04-21 14:26 48.11171 16.57394 617 ft 13 kts 116°
2026-04-21 14:27 48.11133 16.57508 618 ft 12 kts 116°
2026-04-21 14:27 48.11099 16.57612 611 ft 11 kts 117°
2026-04-21 14:27 48.11032 16.57639 614 ft 11 kts 205°
2026-04-21 14:27 48.10969 16.57590 613 ft 10 kts 209°
2026-04-21 14:28 48.10920 16.57537 618 ft 8 kts 233°
2026-04-21 14:28 48.10929 16.57488 614 ft 4 kts 295°
2026-04-21 14:28 48.10939 16.57459 609 ft 4 kts 295°
2026-04-21 14:28 48.10997 16.57280 609 ft 50 kts 296°
2026-04-21 14:29 48.11249 16.56503 615 ft 113 kts 296°
2026-04-21 14:29 48.11675 16.55201 627 ft 162 kts 297°
2026-04-21 14:29 48.12135 16.53645 1220 ft 164 kts 288°
2026-04-21 14:29 48.12107 16.51952 1936 ft 175 kts 253°
2026-04-21 14:30 48.11302 16.50404 2222 ft 204 kts 224°
2026-04-21 14:30 48.10085 16.49051 2524 ft 230 kts 216°
2026-04-21 14:30 48.08657 16.47715 2931 ft 254 kts 210°
2026-04-21 14:30 48.06906 16.46977 3499 ft 271 kts 179°
2026-04-21 14:31 48.05000 16.47246 4295 ft 278 kts 171°
2026-04-21 14:31 48.03076 16.47697 5197 ft 282 kts 168°
2026-04-21 14:31 48.01124 16.48201 6109 ft 286 kts 169°
2026-04-21 14:31 47.99155 16.48667 7084 ft 288 kts 171°
2026-04-21 14:32 47.97164 16.48752 7937 ft 292 kts 186°
2026-04-21 14:32 47.95191 16.47991 8757 ft 295 kts 205°
2026-04-21 14:32 47.93376 16.46545 9641 ft 296 kts 211°
2026-04-21 14:32 47.91575 16.45043 10496 ft 298 kts 210°
2026-04-21 14:33 47.89602 16.43744 10781 ft 322 kts 198°
2026-04-21 14:33 47.87324 16.43136 11011 ft 345 kts 182°
2026-04-21 14:33 47.84890 16.43446 11519 ft 355 kts 168°
2026-04-21 14:33 47.82483 16.44416 12214 ft 359 kts 163°
2026-04-21 14:34 47.80061 16.45424 12953 ft 363 kts 165°
2026-04-21 14:34 47.77613 16.46390 13693 ft 366 kts 166°
2026-04-21 14:34 47.75168 16.47332 14347 ft 369 kts 166°
2026-04-21 14:34 47.72661 16.48290 14952 ft 373 kts 166°
2026-04-21 14:35 47.70123 16.49266 15548 ft 377 kts 166°
2026-04-21 14:35 47.67570 16.50255 16132 ft 381 kts 167°
2026-04-21 14:35 47.64983 16.51266 16714 ft 386 kts 167°
2026-04-21 14:35 47.62408 16.52278 17297 ft 390 kts 167°
2026-04-21 14:36 47.59765 16.53320 17882 ft 393 kts 167°
2026-04-21 14:36 47.57106 16.54365 18492 ft 396 kts 167°
2026-04-21 14:36 47.54428 16.55410 19018 ft 399 kts 167°
2026-04-21 14:36 47.51728 16.56466 19555 ft 402 kts 167°
2026-04-21 14:37 47.49009 16.57532 20092 ft 405 kts 167°
2026-04-21 14:37 47.46270 16.58603 20634 ft 408 kts 167°
2026-04-21 14:37 47.43503 16.59624 21162 ft 410 kts 172°
2026-04-21 14:37 47.40666 16.60097 21691 ft 410 kts 181°
2026-04-21 14:38 47.37840 16.60211 22180 ft 412 kts 181°
2026-04-21 14:38 47.34955 16.60319 22692 ft 415 kts 181°
2026-04-21 14:38 47.32056 16.60431 23196 ft 417 kts 181°
2026-04-21 14:38 47.29137 16.60551 23677 ft 420 kts 181°
2026-04-21 14:39 47.26207 16.60680 24070 ft 422 kts 181°
2026-04-21 14:39 47.23305 16.60813 24456 ft 424 kts 181°
2026-04-21 14:39 47.20342 16.60947 24837 ft 426 kts 181°
2026-04-21 14:39 47.17373 16.61078 25203 ft 428 kts 181°
2026-04-21 14:40 47.14386 16.61205 25555 ft 430 kts 181°
2026-04-21 14:40 47.11385 16.61328 25913 ft 433 kts 181°
2026-04-21 14:40 47.08356 16.61457 26256 ft 435 kts 181°
2026-04-21 14:40 47.05323 16.61588 26592 ft 437 kts 181°
2026-04-21 14:41 47.02267 16.61718 26927 ft 439 kts 181°
2026-04-21 14:41 46.99199 16.61848 27242 ft 442 kts 181°
2026-04-21 14:41 46.96113 16.61985 27555 ft 444 kts 181°
2026-04-21 14:41 46.93040 16.62122 27855 ft 447 kts 181°
2026-04-21 14:42 46.89913 16.62258 28145 ft 450 kts 182°
2026-04-21 14:42 46.86775 16.62394 28433 ft 452 kts 182°
2026-04-21 14:42 46.83628 16.62585 28712 ft 456 kts 178°
2026-04-21 14:42 46.80470 16.63354 28974 ft 463 kts 169°
2026-04-21 14:43 46.77376 16.64838 29224 ft 470 kts 161°
2026-04-21 14:43 46.74378 16.66637 29455 ft 473 kts 161°
2026-04-21 14:43 46.71328 16.68461 29679 ft 475 kts 161°
2026-04-21 14:43 46.68252 16.70286 29902 ft 478 kts 162°
2026-04-21 14:44 46.65159 16.72114 30104 ft 481 kts 162°
2026-04-21 14:44 46.62046 16.73951 30286 ft 483 kts 162°
2026-04-21 14:44 46.58927 16.75793 30533 ft 483 kts 162°
2026-04-21 14:44 46.55810 16.77632 30786 ft 483 kts 162°
2026-04-21 14:45 46.52695 16.79469 31045 ft 483 kts 162°
2026-04-21 14:45 46.49572 16.81309 31295 ft 484 kts 162°
2026-04-21 14:45 46.46450 16.83148 31563 ft 484 kts 162°
2026-04-21 14:45 46.43363 16.84967 31813 ft 484 kts 162°
2026-04-21 14:46 46.40235 16.86804 32071 ft 484 kts 163°
2026-04-21 14:46 46.37106 16.88636 32331 ft 484 kts 163°
2026-04-21 14:46 46.33972 16.90471 32606 ft 484 kts 163°
2026-04-21 14:46 46.30849 16.92291 32856 ft 483 kts 164°
2026-04-21 14:47 46.27698 16.93690 33126 ft 476 kts 174°
2026-04-21 14:47 46.24448 16.94359 33381 ft 468 kts 183°
2026-04-21 14:47 46.21218 16.94283 33636 ft 460 kts 193°
2026-04-21 14:47 46.18094 16.93507 33889 ft 451 kts 201°
2026-04-21 14:48 46.15103 16.92199 34129 ft 448 kts 205°
2026-04-21 14:48 46.13135 16.91298 34271 ft 448 kts 204°
2026-04-21 14:48 46.10156 16.89944 34491 ft 448 kts 204°
2026-04-21 14:48 46.07172 16.88594 34715 ft 448 kts 204°
2026-04-21 14:49 46.04197 16.87254 34924 ft 448 kts 204°
2026-04-21 14:49 46.01211 16.85911 35033 ft 450 kts 204°
2026-04-21 14:49 45.98201 16.84558 35062 ft 454 kts 204°
2026-04-21 14:50 45.92159 16.81825 35055 ft 461 kts 204°
2026-04-21 14:50 45.85983 16.79051 35057 ft 466 kts 204°
2026-04-21 14:51 45.79751 16.76265 35053 ft 469 kts 204°
2026-04-21 14:51 45.73516 16.73478 35050 ft 469 kts 205°
2026-04-21 14:52 45.67321 16.70717 35049 ft 469 kts 205°
2026-04-21 14:52 45.61083 16.67938 35043 ft 469 kts 205°
2026-04-21 14:53 45.54846 16.65159 35052 ft 469 kts 205°
2026-04-21 14:53 45.48618 16.62399 35051 ft 468 kts 205°
2026-04-21 14:54 45.42395 16.59644 35043 ft 468 kts 205°
2026-04-21 14:54 45.36171 16.56896 35039 ft 467 kts 205°
2026-04-21 14:55 45.29991 16.54174 35038 ft 467 kts 205°
2026-04-21 14:55 45.23738 16.51436 35041 ft 467 kts 205°
2026-04-21 14:56 45.17568 16.48735 35033 ft 467 kts 205°
2026-04-21 14:56 45.11350 16.46015 35035 ft 466 kts 205°
2026-04-21 14:57 45.05141 16.43298 35027 ft 466 kts 205°
2026-04-21 14:57 44.98972 16.40597 35025 ft 466 kts 205°
2026-04-21 14:58 44.92774 16.37893 35016 ft 466 kts 205°
2026-04-21 14:58 44.86568 16.35204 35022 ft 466 kts 205°
2026-04-21 14:59 44.80399 16.32548 35022 ft 466 kts 205°
2026-04-21 14:59 44.74193 16.29878 35017 ft 466 kts 205°
2026-04-21 15:00 44.68002 16.27207 35006 ft 465 kts 205°
2026-04-21 15:00 44.61816 16.24540 34906 ft 458 kts 205°
2026-04-21 15:00 44.58806 16.23259 34229 ft 445 kts 205°
2026-04-21 15:01 44.55856 16.22007 33133 ft 440 kts 206°
2026-04-21 15:01 44.52945 16.20763 31865 ft 440 kts 206°
2026-04-21 15:01 44.50012 16.19504 30665 ft 440 kts 206°
2026-04-21 15:01 44.47109 16.18262 29655 ft 433 kts 206°
2026-04-21 15:02 44.44241 16.17036 28659 ft 427 kts 206°
2026-04-21 15:02 44.41409 16.15827 28147 ft 424 kts 206°
2026-04-21 15:02 44.38588 16.14620 27666 ft 422 kts 206°
2026-04-21 15:02 44.35784 16.13427 27213 ft 419 kts 205°
2026-04-21 15:03 44.33007 16.12247 26757 ft 416 kts 205°
2026-04-21 15:03 44.30245 16.11074 26316 ft 413 kts 205°
2026-04-21 15:03 44.27501 16.09909 25878 ft 410 kts 205°
2026-04-21 15:03 44.24781 16.08755 25448 ft 407 kts 205°
2026-04-21 15:04 44.22112 16.07621 25028 ft 404 kts 205°
2026-04-21 15:04 44.19426 16.06482 24613 ft 401 kts 205°
2026-04-21 15:04 44.16761 16.05354 24202 ft 398 kts 204°
2026-04-21 15:04 44.14116 16.04240 23797 ft 396 kts 204°
2026-04-21 15:05 44.11482 16.03134 23366 ft 393 kts 204°
2026-04-21 15:05 44.06291 16.00946 22419 ft 387 kts 204°
2026-04-21 15:05 44.03725 15.99867 21956 ft 384 kts 204°
2026-04-21 15:06 44.01356 15.98574 21558 ft 381 kts 207°
2026-04-21 15:06 43.98843 15.97417 21112 ft 380 kts 204°
2026-04-21 15:06 43.96303 15.96422 20670 ft 379 kts 202°
2026-04-21 15:06 43.93760 15.95484 20236 ft 377 kts 201°
2026-04-21 15:07 43.91229 15.94538 19807 ft 375 kts 202°
2026-04-21 15:07 43.88716 15.93562 19382 ft 373 kts 202°
2026-04-21 15:07 43.86230 15.92558 18971 ft 371 kts 203°
2026-04-21 15:07 43.83794 15.91547 18565 ft 369 kts 203°
2026-04-21 15:08 43.81338 15.90515 18149 ft 368 kts 203°
2026-04-21 15:08 43.78887 15.89478 17690 ft 367 kts 203°
2026-04-21 15:08 43.76450 15.88450 17223 ft 364 kts 202°
2026-04-21 15:08 43.74016 15.87431 16769 ft 362 kts 202°
2026-04-21 15:09 43.71667 15.86457 16583 ft 352 kts 202°
2026-04-21 15:09 43.69356 15.85506 16447 ft 340 kts 202°
2026-04-21 15:09 43.67103 15.84577 16055 ft 335 kts 202°
2026-04-21 15:09 43.64905 15.83667 15601 ft 324 kts 202°
2026-04-21 15:10 43.62774 15.82786 15147 ft 314 kts 202°
2026-04-21 15:10 43.60696 15.81927 14704 ft 308 kts 202°
2026-04-21 15:10 43.58649 15.81078 14261 ft 305 kts 202°
2026-04-21 15:10 43.56627 15.80240 13832 ft 302 kts 202°
2026-04-21 15:11 43.54613 15.79406 13361 ft 301 kts 202°
2026-04-21 15:11 43.52632 15.78583 12891 ft 301 kts 201°
2026-04-21 15:11 43.50616 15.77744 12415 ft 303 kts 201°
2026-04-21 15:11 43.48587 15.76901 11947 ft 305 kts 201°
2026-04-21 15:12 43.46548 15.76060 11488 ft 307 kts 200°
2026-04-21 15:12 43.44494 15.75211 11033 ft 309 kts 200°
2026-04-21 15:12 43.42439 15.74363 10589 ft 306 kts 200°
2026-04-21 15:12 43.40423 15.73533 10155 ft 299 kts 199°
2026-04-21 15:13 43.38441 15.72717 9700 ft 296 kts 199°
2026-04-21 15:13 43.36466 15.71908 9189 ft 293 kts 199°
2026-04-21 15:13 43.34524 15.71114 8583 ft 289 kts 198°
2026-04-21 15:13 43.32577 15.70680 7997 ft 288 kts 178°
2026-04-21 15:14 43.30647 15.71287 7441 ft 284 kts 154°
2026-04-21 15:14 43.29063 15.72845 6826 ft 280 kts 135°
2026-04-21 15:14 43.27680 15.74720 6182 ft 278 kts 134°
2026-04-21 15:14 43.26308 15.76577 5540 ft 275 kts 135°
2026-04-21 15:15 43.25068 15.78535 4900 ft 270 kts 117°
2026-04-21 15:15 43.24565 15.80953 4273 ft 263 kts 89°
2026-04-21 15:15 43.24946 15.83351 3609 ft 257 kts 61°
2026-04-21 15:15 43.26047 15.85235 3123 ft 252 kts 43°
2026-04-21 15:16 43.27308 15.86958 2991 ft 257 kts 45°
2026-04-21 15:16 43.28565 15.88716 3007 ft 259 kts 45°
2026-04-21 15:16 43.29831 15.90498 3010 ft 260 kts 45°
2026-04-21 15:16 43.31091 15.92272 3010 ft 259 kts 45°
2026-04-21 15:17 43.32356 15.94046 3011 ft 259 kts 45°
2026-04-21 15:17 43.33613 15.95805 2997 ft 253 kts 45°
2026-04-21 15:17 43.34788 15.97452 3005 ft 235 kts 45°
2026-04-21 15:17 43.35898 15.99011 3002 ft 224 kts 45°
2026-04-21 15:18 43.36987 16.00540 3008 ft 222 kts 45°
2026-04-21 15:18 43.38107 16.02012 3009 ft 222 kts 43°
2026-04-21 15:18 43.39165 16.03533 3008 ft 222 kts 49°
2026-04-21 15:18 43.40101 16.05129 3005 ft 207 kts 52°
2026-04-21 15:19 43.40953 16.06644 3004 ft 195 kts 52°
2026-04-21 15:19 43.41769 16.08100 3003 ft 190 kts 52°
2026-04-21 15:19 43.42573 16.09535 3002 ft 188 kts 52°
2026-04-21 15:19 43.43375 16.10964 3009 ft 188 kts 52°
2026-04-21 15:20 43.44177 16.12396 2941 ft 188 kts 52°
2026-04-21 15:20 43.44976 16.13824 2737 ft 188 kts 52°
2026-04-21 15:20 43.45773 16.15247 2484 ft 187 kts 52°
2026-04-21 15:20 43.46566 16.16664 2234 ft 186 kts 52°
2026-04-21 15:21 43.47329 16.18029 1988 ft 176 kts 52°
2026-04-21 15:21 43.48045 16.19309 1787 ft 160 kts 52°
2026-04-21 15:21 43.48700 16.20482 1552 ft 150 kts 52°
2026-04-21 15:21 43.49330 16.21610 1360 ft 147 kts 52°
2026-04-21 15:22 43.49956 16.22730 1164 ft 147 kts 52°
2026-04-21 15:22 43.50583 16.23854 961 ft 149 kts 52°
2026-04-21 15:22 43.51213 16.24983 768 ft 148 kts 52°
2026-04-21 15:22 43.51841 16.26109 556 ft 147 kts 51°
2026-04-21 15:23 43.52463 16.27234 392 ft 146 kts 50°
2026-04-21 15:23 43.53079 16.28329 176 ft 146 kts 50°
2026-04-21 15:23 43.53662 16.29368 81 ft 110 kts 52°
2026-04-21 15:23 43.53941 16.29881 68 ft 37 kts 52°
2026-04-21 15:24 43.54056 16.30095 62 ft 10 kts 65°
2026-04-21 15:24 43.54026 16.30107 61 ft 10 kts 190°
2026-04-21 15:24 43.53972 16.30086 59 ft 6 kts 196°
2026-04-21 15:24 43.53948 16.30077 62 ft 1 kts 196°
2026-04-21 15:25 43.53944 16.30075 63 ft 3 kts 196°
2026-04-21 15:25 43.53901 16.30044 61 ft 10 kts 220°
2026-04-21 15:25 43.53863 16.29983 68 ft 8 kts 233°
2026-04-21 15:25 43.53826 16.29934 62 ft 6 kts 180°
2026-04-21 15:26 43.53807 16.29972 68 ft 4 kts 117°
2026-04-21 15:26 43.53803 16.29983 63 ft 0 kts 114°
2026-04-21 15:26 43.53802 16.29987 65 ft 1 kts 114°
2026-04-21 15:26 43.53799 16.29996 66 ft 1 kts 114°
2026-04-21 15:27 43.53797 16.30001 65 ft 1 kts 114°
2026-04-21 15:27 43.53795 16.30007 66 ft 0 kts 114°